TimeMDT,TemperatureF,Dew PointF,Humidity,Sea Level PressureIn,VisibilityMPH,Wind Direction,Wind SpeedMPH,Gust SpeedMPH,PrecipitationIn,Events,Conditions,WindDirDegrees,DateUTC
12:15 AM,71.6,64.4,78,30.15,10.0,North,6.9,-,N/A,Thunderstorm,Partly Cloudy,10,2013-07-25 06:15:00
12:35 AM,71.6,64.4,78,30.14,10.0,NNE,8.1,-,N/A,,Partly Cloudy,20,2013-07-25 06:35:00
12:55 AM,71.6,64.4,78,30.14,10.0,NNE,6.9,-,N/A,,Clear,20,2013-07-25 06:55:00
1:15 AM,69.8,64.4,83,30.14,10.0,NNE,6.9,-,N/A,,Clear,20,2013-07-25 07:15:00
1:35 AM,69.8,66.2,88,30.14,10.0,NE,10.4,-,N/A,,Partly Cloudy,40,2013-07-25 07:35:00
1:55 AM,69.8,64.4,83,30.14,10.0,NE,13.8,-,N/A,,Mostly Cloudy,40,2013-07-25 07:55:00
2:15 AM,69.8,64.4,83,30.15,10.0,NNE,11.5,-,N/A,Thunderstorm,Mostly Cloudy,20,2013-07-25 08:15:00
2:35 AM,69.8,64.4,83,30.16,10.0,North,10.4,-,N/A,,Overcast,10,2013-07-25 08:35:00
2:55 AM,69.8,64.4,83,30.16,10.0,North,10.4,-,N/A,,Overcast,10,2013-07-25 08:55:00
3:15 AM,69.8,64.4,83,30.19,10.0,NW,9.2,-,N/A,Thunderstorm,Overcast,320,2013-07-25 09:15:00
3:35 AM,69.8,64.4,83,30.18,10.0,NNW,12.7,-,N/A,,Mostly Cloudy,340,2013-07-25 09:35:00
3:55 AM,68.0,62.6,83,30.19,10.0,NNW,15.0,-,N/A,Thunderstorm,Overcast,330,2013-07-25 09:55:00
4:15 AM,68.0,62.6,83,30.17,10.0,NNW,12.7,-,N/A,Rain,Light Rain,340,2013-07-25 10:15:00
4:35 AM,66.2,62.6,88,30.16,10.0,North,12.7,-,N/A,,Partly Cloudy,10,2013-07-25 10:35:00
4:55 AM,66.2,64.4,94,30.17,10.0,NNE,10.4,-,N/A,Rain-Thunderstorm,Light Rain,20,2013-07-25 10:55:00
5:15 AM,66.2,64.4,94,30.17,9.0,NNE,10.4,-,N/A,Rain-Thunderstorm,Light Rain,20,2013-07-25 11:15:00
5:35 AM,66.2,64.4,94,30.17,5.0,NNE,11.5,-,0.04,Rain-Thunderstorm,Heavy Rain,20,2013-07-25 11:35:00
5:55 AM,66.2,64.4,94,30.17,8.0,NE,6.9,-,0.06,Rain,Light Rain,40,2013-07-25 11:55:00
6:15 AM,66.2,64.4,94,30.18,10.0,NNE,5.8,-,0.01,Rain-Thunderstorm,Light Thunderstorms and Rain,20,2013-07-25 12:15:00
6:35 AM,66.2,66.2,100,30.17,10.0,NE,8.1,-,0.01,,Mostly Cloudy,40,2013-07-25 12:35:00
7:35 AM,66.2,66.2,100,30.17,5.0,NNE,4.6,-,0.05,Rain,Light Rain,20,2013-07-25 13:35:00
7:55 AM,66.2,66.2,100,30.20,4.0,WSW,5.8,-,0.08,Rain,Light Rain,250,2013-07-25 13:55:00
8:15 AM,66.2,66.2,100,30.21,10.0,West,10.4,-,0.01,,Overcast,270,2013-07-25 14:15:00
8:35 AM,66.2,66.2,100,30.21,10.0,SW,8.1,-,0.01,Rain,Light Rain,230,2013-07-25 14:35:00
8:55 AM,68.0,66.2,94,30.21,10.0,West,6.9,-,0.01,Rain,Light Rain,280,2013-07-25 14:55:00
9:15 AM,68.0,64.4,88,30.20,10.0,WNW,9.2,-,N/A,Rain,Light Rain,290,2013-07-25 15:15:00
9:35 AM,68.0,64.4,88,30.21,9.0,West,11.5,19.6,N/A,Rain,Light Rain,280,2013-07-25 15:35:00
9:55 AM,68.0,62.6,83,30.21,8.0,West,15.0,-,0.01,Rain,Light Rain,280,2013-07-25 15:55:00
10:15 AM,68.0,62.6,83,30.22,10.0,WSW,19.6,34.5,N/A,Rain,Light Rain,250,2013-07-25 16:15:00
10:35 AM,66.2,64.4,94,30.21,5.0,West,15.0,28.8,0.01,Rain,Light Rain,270,2013-07-25 16:35:00
11:15 AM,68.0,64.4,88,30.19,10.0,WNW,11.5,-,N/A,,Clear,290,2013-07-25 17:15:00
11:35 AM,69.8,64.4,83,30.18,10.0,WNW,8.1,-,N/A,,Clear,290,2013-07-25 17:35:00
11:55 AM,73.4,64.4,73,30.17,10.0,West,6.9,-,N/A,,Clear,260,2013-07-25 17:55:00
12:35 PM,77.0,64.4,65,30.17,10.0,SW,5.8,-,N/A,,Clear,230,2013-07-25 18:35:00
12:55 PM,77.0,62.6,61,30.16,10.0,SSW,5.8,-,N/A,Rain,Light Rain,200,2013-07-25 18:55:00
1:15 PM,77.0,64.4,65,30.16,10.0,SW,9.2,-,N/A,,Clear,220,2013-07-25 19:15:00
1:35 PM,77.0,64.4,65,30.15,10.0,SW,8.1,-,N/A,,Clear,230,2013-07-25 19:35:00
1:55 PM,77.0,66.2,69,30.15,10.0,South,8.1,-,N/A,,Clear,190,2013-07-25 19:55:00
2:15 PM,77.0,64.4,65,30.15,10.0,South,6.9,-,N/A,,Clear,190,2013-07-25 20:15:00
2:35 PM,77.0,64.4,65,30.15,10.0,SSW,5.8,-,N/A,,Partly Cloudy,210,2013-07-25 20:35:00
2:55 PM,78.8,64.4,61,30.14,10.0,South,10.4,-,N/A,,Clear,170,2013-07-25 20:55:00
3:15 PM,78.8,64.4,61,30.13,10.0,South,8.1,-,N/A,,Clear,170,2013-07-25 21:15:00
3:35 PM,80.6,64.4,58,30.12,10.0,South,8.1,-,N/A,,Clear,180,2013-07-25 21:35:00
3:55 PM,80.6,66.2,61,30.11,10.0,SSW,9.2,-,N/A,,Clear,200,2013-07-25 21:55:00
4:15 PM,82.4,64.4,54,30.11,10.0,South,8.1,-,N/A,,Clear,170,2013-07-25 22:15:00
4:35 PM,82.4,64.4,54,30.10,10.0,South,10.4,-,N/A,,Clear,180,2013-07-25 22:35:00
4:55 PM,84.2,62.6,48,30.09,10.0,South,12.7,-,N/A,,Clear,190,2013-07-25 22:55:00
5:15 PM,84.2,60.8,45,30.08,10.0,South,12.7,-,N/A,,Clear,170,2013-07-25 23:15:00
5:35 PM,82.4,62.6,51,30.07,10.0,South,11.5,-,N/A,,Clear,180,2013-07-25 23:35:00
5:55 PM,82.4,62.6,51,30.06,10.0,South,12.7,-,N/A,,Clear,180,2013-07-25 23:55:00
6:15 PM,84.2,64.4,51,30.05,10.0,South,11.5,-,N/A,,Clear,180,2013-07-26 00:15:00
6:35 PM,84.2,60.8,45,30.06,10.0,South,12.7,-,N/A,,Clear,170,2013-07-26 00:35:00
6:55 PM,84.2,59.0,42,30.07,10.0,South,9.2,-,N/A,,Clear,170,2013-07-26 00:55:00
7:15 PM,82.4,60.8,48,30.07,10.0,South,8.1,-,N/A,,Clear,170,2013-07-26 01:15:00
7:35 PM,80.6,62.6,54,30.07,10.0,South,6.9,-,N/A,,Clear,170,2013-07-26 01:35:00
7:55 PM,80.6,62.6,54,30.07,10.0,South,8.1,-,N/A,,Clear,170,2013-07-26 01:55:00
8:15 PM,78.8,64.4,61,30.08,10.0,South,5.8,-,N/A,,Clear,180,2013-07-26 02:15:00
8:35 PM,77.0,64.4,65,30.08,10.0,South,4.6,-,N/A,,Clear,170,2013-07-26 02:35:00
8:55 PM,77.0,64.4,65,30.09,10.0,SSW,8.1,-,N/A,,Clear,210,2013-07-26 02:55:00
9:15 PM,75.2,64.4,69,30.09,10.0,SW,6.9,-,N/A,,Clear,220,2013-07-26 03:15:00
9:35 PM,75.2,66.2,73,30.10,10.0,SW,3.5,-,N/A,,Clear,220,2013-07-26 03:35:00
9:55 PM,75.2,64.4,69,30.10,10.0,SW,8.1,-,N/A,,Clear,230,2013-07-26 03:55:00
10:15 PM,75.2,64.4,69,30.10,10.0,WSW,9.2,-,N/A,,Clear,240,2013-07-26 04:15:00
10:35 PM,77.0,64.4,65,30.10,10.0,SW,6.9,-,N/A,,Clear,220,2013-07-26 04:35:00
10:55 PM,73.4,66.2,78,30.10,10.0,SSW,3.5,-,N/A,,Clear,200,2013-07-26 04:55:00
11:15 PM,73.4,66.2,78,30.10,10.0,WSW,4.6,-,N/A,,Clear,250,2013-07-26 05:15:00
11:35 PM,71.6,66.2,83,30.10,10.0,West,4.6,-,N/A,,Clear,270,2013-07-26 05:35:00